DW0000 Weather Reports


Display with metric or nautical units.
time (UTC)temp
F
wind
direction
speed
MPH
gust
MPH
rain 1hr
in
rain 24hr
in
rain mn
in
humidity
%
barometer
mb
20240301170006 64 222 5.0 9.0 0.00 0.00 0.00 74 1013.0
20240301165006 64 244 10.0 13.0 0.00 0.00 0.00 74 1013.1
20240301164506 64 249 9.0 14.0 0.00 0.00 0.00 73 1013.2
20240301164006 64 240 10.0 14.0 0.00 0.00 0.00 73 1013.0
20240301163506 64 214 9.0 15.0 0.00 0.00 0.00 73 1013.1
20240301163007 64 237 8.0 13.0 0.00 0.00 0.00 73 1013.1
20240301162506 64 219 12.0 18.0 0.00 0.00 0.00 73 1013.2
20240301160007 64 239 8.0 15.0 0.00 0.00 0.00 71 1013.0
20240301154006 64 239 13.0 20.0 0.00 0.00 0.00 70 1013.2
20240301153507 64 233 12.0 20.0 0.00 0.00 0.00 72 1013.1
20240301151506 64 244 15.0 20.0 0.00 0.00 0.00 72 1013.3
20240301150506 64 243 13.0 18.0 0.00 0.00 0.00 71 1013.4
20240301145506 64 239 14.0 20.0 0.00 0.00 0.00 70 1013.4
20240301143006 65 236 14.0 20.0 0.00 0.00 0.00 68 1013.6
20240301142006 65 235 12.0 21.0 0.00 0.00 0.00 68 1013.7
20240301141006 65 246 12.0 21.0 0.00 0.00 0.00 71 1013.7
20240301140507 65 240 14.0 21.0 0.00 0.00 0.00 71 1013.8
20240301135506 65 233 10.0 15.0 0.00 0.00 0.00 74 1013.7
20240301134506 64 251 8.0 12.0 0.00 0.00 0.00 72 1013.8
20240301133007 65 237 14.0 20.0 0.00 0.00 0.00 71 1013.8
20240301132507 65 226 12.0 18.0 0.00 0.00 0.00 71 1013.8
20240301132006 65 232 12.0 18.0 0.00 0.00 0.00 72 1013.9
20240301131506 65 237 12.0 18.0 0.00 0.00 0.00 73 1014.0
20240301130507 65 230 13.0 20.0 0.00 0.00 0.00 75 1014.3
20240301130006 65 244 12.0 18.0 0.00 0.00 0.00 76 1014.3
20240301125506 65 224 12.0 20.0 0.00 0.00 0.00 77 1014.4
20240301124506 65 207 11.0 17.0 0.00 0.00 0.00 78 1014.4
20240301124006 65 214 9.0 15.0 0.00 0.00 0.00 78 1014.3
20240301123506 65 223 10.0 16.0 0.00 0.00 0.00 78 1014.3
20240301123007 65 231 13.0 20.0 0.00 0.00 0.00 78 1014.5
20240301122506 65 233 9.0 17.0 0.00 0.00 0.00 78 1014.4
20240301120507 65 220 10.0 17.0 0.00 0.00 0.00 78 1014.5
20240301115506 65 213 11.0 15.0 0.00 0.00 0.00 79 1014.6
20240301113006 64 250 9.0 14.0 0.00 0.00 0.00 78 1014.5
20240301112506 64 242 11.0 16.0 0.00 0.00 0.00 78 1014.7
20240301112006 64 223 7.0 12.0 0.00 0.00 0.00 77 1014.7
20240301110006 64 239 10.0 16.0 0.00 0.00 0.00 76 1014.9
20240301104006 64 231 16.0 25.0 0.00 0.00 0.00 75 1014.7
20240301103006 64 228 12.0 20.0 0.00 0.00 0.00 76 1014.8
20240301102506 65 241 9.0 14.0 0.00 0.00 0.00 76 1014.8
20240301101506 65 221 12.0 20.0 0.00 0.00 0.00 76 1014.8
20240301101006 65 219 12.0 20.0 0.00 0.00 0.00 76 1014.8
20240301100508 65 231 15.0 20.0 0.00 0.00 0.00 76 1014.7
20240301094506 65 214 10.0 21.0 0.00 0.00 0.00 77 1015.0
20240301093006 65 215 12.0 20.0 0.00 0.00 0.00 77 1015.0
20240301092505 65 241 12.0 20.0 0.00 0.00 0.00 77 1015.0
20240301091506 65 228 10.0 20.0 0.00 0.00 0.00 76 1015.0
20240301090506 65 225 10.0 20.0 0.00 0.00 0.00 76 1015.1
20240301090006 65 221 12.0 17.0 0.00 0.00 0.00 76 1015.0
20240301084506 65 236 11.0 17.0 0.00 0.00 0.00 76 1015.0
20240301081006 65 214 10.0 17.0 0.00 0.00 0.00 76 1014.5
20240301074006 65 211 13.0 21.0 0.00 0.00 0.00 76 1014.3
20240301071505 65 218 15.0 21.0 0.00 0.00 0.00 76 1014.2
20240301065506 65 231 13.0 18.0 0.00 0.00 0.00 77 1014.1
20240301065006 66 216 12.0 21.0 0.00 0.00 0.00 77 1014.1
20240301064506 66 212 9.0 20.0 0.00 0.00 0.00 76 1014.1
20240301064006 66 230 12.0 21.0 0.00 0.00 0.00 76 1014.1
20240301063505 66 220 13.0 21.0 0.00 0.00 0.00 75 1014.1
20240301055006 67 213 13.0 21.0 0.00 0.00 0.00 73 1014.2
20240301054505 67 227 16.0 23.0 0.00 0.00 0.00 73 1014.2
20240301054005 67 221 12.0 21.0 0.00 0.00 0.00 75 1014.3
20240301053006 67 213 15.0 21.0 0.00 0.00 0.00 73 1014.4
20240301052006 68 198 11.0 18.0 0.00 0.00 0.00 72 1014.2
20240301051506 68 227 13.0 18.0 0.00 0.00 0.00 74 1014.2
20240301050506 68 226 12.0 20.0 0.00 0.00 0.00 72 1014.2
20240301045507 68 212 15.0 26.0 0.00 0.00 0.00 71 1014.2
20240301045006 68 205 16.0 23.0 0.00 0.00 0.00 73 1014.3
20240301043505 69 208 16.0 21.0 0.00 0.00 0.00 73 1014.2
20240301043006 69 203 14.0 25.0 0.00 0.00 0.00 73 1014.3
20240301042505 69 209 14.0 20.0 0.00 0.00 0.00 74 1014.2
20240301042006 69 221 11.0 21.0 0.00 0.00 0.00 73 1014.2
20240301041505 69 219 15.0 23.0 0.00 0.00 0.00 72 1014.2
20240301041006 70 204 17.0 23.0 0.00 0.00 0.00 70 1014.2
20240301035005 69 208 12.0 20.0 0.00 0.00 0.00 74 1014.3
20240301033506 69 215 17.0 25.0 0.00 0.00 0.00 72 1014.3
20240301033005 69 216 16.0 24.0 0.00 0.00 0.00 73 1014.4
20240301032005 69 214 16.0 23.0 0.00 0.00 0.00 71 1014.5
20240301031505 70 194 16.0 23.0 0.00 0.00 0.00 72 1014.5
20240301030505 70 224 15.0 23.0 0.00 0.00 0.00 71 1014.6
20240301025505 69 217 16.0 26.0 0.00 0.00 0.00 72 1014.6
20240301024505 70 213 14.0 24.0 0.00 0.00 0.00 71 1014.6
20240301024006 70 220 16.0 26.0 0.00 0.00 0.00 72 1014.6
20240301023005 70 223 17.0 25.0 0.00 0.00 0.00 71 1014.6
20240301022005 70 197 18.0 24.0 0.00 0.00 0.00 69 1014.6
20240301021005 71 233 16.0 23.0 0.00 0.00 0.00 69 1014.6
20240301020505 71 230 14.0 25.0 0.00 0.00 0.00 68 1014.6
20240301020006 71 221 13.0 23.0 0.00 0.00 0.00 67 1014.6
20240301015006 71 228 14.0 20.0 0.00 0.00 0.00 68 1014.7
20240301013006 71 224 16.0 21.0 0.00 0.00 0.00 69 1014.7
20240301011005 72 228 18.0 25.0 0.00 0.00 0.00 72 1014.9
20240301010505 72 219 15.0 21.0 0.00 0.00 0.00 73 1015.0
20240301005506 72 222 12.0 20.0 0.00 0.00 0.00 72 1014.9
20240301005005 73 231 12.0 21.0 0.00 0.00 0.00 73 1014.9
20240301002506 73 217 17.0 23.0 0.00 0.00 0.00 73 1015.0
20240301001505 73 244 12.0 16.0 0.00 0.00 0.00 76 1014.9
20240301001006 72 246 9.0 18.0 0.00 0.00 0.00 75 1015.0
20240301000005 73 229 14.0 21.0 0.00 0.00 0.00 74 1015.0
20240229235007 73 219 14.0 20.0 0.00 0.00 0.00 73 1015.2
20240229234005 72 250 12.0 21.0 0.00 0.00 0.00 76 1015.2
20240229232505 71 221 14.0 25.0 0.00 0.00 0.00 76 1015.3
20240229232006 71 225 13.0 25.0 0.00 0.00 0.00 76 1015.3
20240229231505 71 235 11.0 22.0 0.00 0.00 0.00 76 1015.3
20240229231005 71 220 13.0 18.0 0.00 0.00 0.00 75 1015.3
20240229225505 72 229 12.0 18.0 0.00 0.00 0.00 75 1015.4
20240229224005 73 236 14.0 24.0 0.00 0.00 0.00 77 1015.4
20240229223005 72 244 14.0 24.0 0.00 0.00 0.00 76 1015.4
20240229222005 72 229 15.0 22.0 0.00 0.00 0.00 76 1015.5
20240229221005 72 243 15.0 22.0 0.00 0.00 0.00 76 1015.3
20240229220005 72 232 10.0 17.0 0.00 0.00 0.00 78 1015.2
20240229215005 71 244 14.0 20.0 0.00 0.00 0.00 77 1015.2
20240229214005 71 244 13.0 18.0 0.00 0.00 0.00 78 1015.1
20240229213005 72 250 12.0 20.0 0.00 0.00 0.00 78 1015.2
20240229212005 71 256 10.0 17.0 0.00 0.00 0.00 79 1015.1
20240229211005 71 279 12.0 20.0 0.00 0.00 0.00 79 1015.2
20240229210505 71 268 12.0 16.0 0.00 0.00 0.00 80 1015.2
20240229210005 71 257 12.0 17.0 0.00 0.00 0.00 78 1015.1
20240229205505 72 265 14.0 18.0 0.00 0.00 0.00 79 1015.1
20240229204005 71 268 11.0 14.0 0.00 0.00 0.00 82 1015.0
20240229203506 71 251 10.0 13.0 0.00 0.00 0.00 82 1015.0
20240229203005 70 258 10.0 13.0 0.00 0.00 0.00 82 1015.0
20240229202505 69 264 7.0 10.0 0.00 0.00 0.00 82 1014.9
20240229202005 69 264 7.0 8.0 0.00 0.00 0.00 82 1014.9
20240229201505 68 262 6.0 8.0 0.00 0.00 0.00 82 1014.9
20240229200506 66 259 6.0 7.0 0.00 0.00 0.00 83 1014.8
20240229200005 65 262 5.0 7.0 0.00 0.00 0.00 83 1014.8
20240229194005 63 211 0.0 0.0 0.00 0.00 0.00 85 1014.8
20240229193504 62 211 0.0 0.0 0.00 0.00 0.00 86 1014.7
20240229193005 62 211 0.0 0.0 0.00 0.00 0.00 87 1014.8
20240229192504 61 211 0.0 0.0 0.00 0.00 0.00 88 1014.8
20240229191004 59 211 0.0 0.0 0.00 0.00 0.00 88 1014.9
20240229190005 58 211 0.0 0.0 0.00 0.00 0.00 88 1014.9
20240229184505 57 211 0.0 0.0 0.00 0.00 0.00 88 1014.9
20240229183504 58 211 0.0 0.0 0.00 0.00 0.00 87 1015.0
20240229182504 58 211 0.0 0.0 0.00 0.00 0.00 87 1015.0
20240229181005 58 211 0.0 0.0 0.00 0.00 0.00 86 1014.9
20240229180006 58 211 0.0 0.0 0.00 0.00 0.00 86 1014.9
20240229175504 59 211 0.0 1.0 0.00 0.00 0.00 86 1014.8
20240229175004 59 211 2.0 3.0 0.00 0.00 0.00 86 1014.8
20240229174004 59 117 3.0 3.0 0.00 0.00 0.00 86 1014.6
20240229171504 59 116 2.0 3.0 0.00 0.00 0.00 86 1014.5
20240229170505 59 116 1.0 2.0 0.00 0.00 0.00 86 1014.6